Location: Arpaise
(41.0333°N, 14.7333°E)
Time: 07:47:00
(UTC+00:00)

Cosmos 1151 Rocket - Pass Details

Date: 05 July 2020
Orbit: 591 x 617 km, 82.5° (Epoch: 05 August)

Event Time Altitude Azimuth Distance (km) Brightness Sun altitude
Rises 21:57:10 0° 2° (N) 2,873 7.7 -24.3°
Reaches altitude 10° 21:59:38 10° 14° (NNE) 1,960 6.4 -24.5°
Enters shadow 22:03:12 30° 69° (ENE) 1,099 4.3 -24.7°
